period_start,C,m1,H,J0,J1,J2,J3,J4,J5,JA,JB,JC,JD,JJ,JK,JN,#
2017-06-01 00:00:22,0.02,0.56,0.00,22.17,25.55,28.58,13.85,45.19,1011.72,2039.02,3252.90,2958.94,3388.97,599.80,594.65,14.98,0000 0000 0000 0000 000000
2017-06-01 00:05:24,0.05,0.56,0.00,22.16,25.55,28.58,13.86,45.16,1011.73,2039.03,3252.04,2958.14,3388.16,600.01,594.96,15.03,0000 0000 0000 0000 000000
2017-06-01 00:10:25,0.03,0.56,0.00,22.18,25.57,28.57,13.94,45.30,1011.72,2039.00,3251.12,2957.82,3387.60,600.15,594.99,15.08,0000 0000 0000 0000 000000
2017-06-01 00:15:26,0.03,0.57,0.00,22.20,25.57,28.58,13.95,45.19,1011.71,2039.00,3250.10,2957.03,3386.92,600.31,595.04,15.13,0000 0000 0000 0000 000000
2017-06-01 00:20:28,0.05,0.57,0.00,22.24,25.57,28.60,13.82,45.16,1011.44,2039.01,3249.24,2956.49,3386.08,599.98,594.43,15.18,0000 0000 0000 0000 000000
2017-06-01 00:25:29,0.03,0.57,0.00,22.27,25.58,28.59,13.87,45.11,1011.29,2039.00,3248.22,2955.99,3385.37,600.09,594.52,15.23,0000 0000 0000 0000 000000
2017-06-01 00:30:30,0.04,0.57,0.00,22.30,25.60,28.59,13.89,45.22,1011.26,2039.00,3247.45,2955.25,3384.78,600.17,594.40,15.28,0000 0000 0000 0000 000000
2017-06-01 00:35:31,0.03,0.57,0.00,22.37,25.60,28.62,13.84,45.17,1011.25,2039.00,3246.48,2954.82,3384.04,600.19,594.20,15.33,0000 0000 0000 0000 000000
2017-06-01 00:40:32,0.05,0.58,0.00,22.39,25.61,28.61,13.90,45.21,1011.25,2039.00,3245.40,2954.03,3383.28,600.18,594.35,15.38,0000 0000 0000 0000 000000
2017-06-01 00:45:33,0.04,0.58,0.00,22.43,25.62,28.62,13.84,45.21,1011.25,2039.00,3244.57,2953.47,3382.66,599.85,593.90,15.43,0000 0000 0000 0000 000000
2017-06-01 00:50:34,0.02,0.58,0.00,22.51,25.63,28.61,13.89,45.22,1011.19,2039.00,3243.68,2952.99,3381.98,600.03,593.87,15.48,0000 0000 0000 0000 000000
2017-06-01 00:55:35,0.05,0.58,0.00,22.58,25.65,28.62,13.76,45.17,1011.12,2039.00,3242.86,2952.29,3381.20,599.95,593.68,15.53,0000 0000 0000 0000 000000
2017-06-01 01:00:37,0.03,0.58,0.00,22.68,25.66,28.63,13.73,45.08,1011.18,2038.99,3241.95,2951.90,3380.60,599.81,593.26,15.58,0000 0000 0000 0000 000000
2017-06-01 01:05:38,0.04,0.59,0.00,22.72,25.67,28.66,13.78,45.07,1011.18,2038.97,3241.08,2951.12,3380.00,599.87,593.28,15.63,0000 0000 0000 0000 000000
2017-06-01 01:10:39,0.03,0.59,0.00,22.80,25.69,28.67,13.89,45.08,1011.22,2038.95,3240.29,2950.88,3379.21,600.26,593.54,15.68,0000 0000 0000 0000 000000
2017-06-01 01:15:41,0.04,0.59,0.00,22.84,25.70,28.67,13.88,45.03,1011.00,2038.94,3239.66,2950.11,3378.81,600.04,593.10,15.73,0000 0000 0000 0000 000000
2017-06-01 01:20:43,0.02,0.59,0.00,22.91,25.72,28.68,13.82,45.11,1010.99,2038.94,3238.89,2949.93,3378.06,599.93,592.86,15.78,0000 0000 0000 0000 000000
2017-06-01 01:25:44,0.04,0.59,0.00,22.99,25.74,28.71,13.78,45.10,1010.77,2038.88,3238.07,2949.15,3377.69,599.95,592.67,15.83,0000 0000 0000 0000 000000
2017-06-01 01:30:45,-0.03,0.59,0.00,23.02,25.76,28.72,13.83,45.13,1010.76,2038.38,3237.39,2948.95,3377.03,599.92,592.53,15.88,0000 0000 0000 0000 000000
2017-06-01 01:35:47,0.02,0.59,0.00,23.05,25.77,28.74,13.86,45.13,1010.76,2038.26,3236.99,2948.41,3376.73,600.34,592.76,15.93,0000 0000 0000 0000 000000
2017-06-01 01:40:48,0.01,0.59,0.00,23.10,25.80,28.77,13.75,44.89,1010.76,2038.05,3236.28,2948.00,3376.03,599.89,592.34,15.98,0000 0000 0000 0000 000000
2017-06-01 01:45:49,0.00,0.60,0.00,23.14,25.82,28.81,13.77,45.08,1010.76,2038.04,3235.96,2947.92,3375.88,599.90,592.26,16.03,0000 0000 0000 0000 000000
2017-06-01 01:50:51,0.05,0.60,0.00,23.13,25.85,28.83,13.76,44.97,1010.76,2038.01,3235.19,2947.14,3375.08,599.96,592.30,16.08,0000 0000 0000 0000 000000
2017-06-01 01:55:52,0.01,0.60,0.00,23.17,25.87,28.84,13.78,44.98,1010.76,2038.00,3234.89,2946.99,3374.76,599.62,591.91,16.13,0000 0000 0000 0000 000000
2017-06-01 02:00:53,0.04,0.60,0.00,23.19,25.89,28.87,13.82,45.00,1010.76,2038.00,3234.09,2946.51,3374.05,600.20,592.42,16.18,0000 0000 0000 0000 000000
2017-06-01 02:05:54,0.00,0.60,0.00,23.27,25.92,28.91,13.80,45.02,1010.76,2038.00,3233.96,2946.01,3373.97,599.96,592.02,16.23,0000 0000 0000 0000 000000
2017-06-01 02:10:55,0.05,0.60,0.00,23.34,25.95,28.95,13.81,44.78,1010.76,2037.98,3233.21,2945.42,3373.23,600.16,591.98,16.28,0000 0000 0000 0000 000000
2017-06-01 02:15:56,0.12,0.61,0.00,23.38,25.97,28.98,13.83,44.98,1010.76,2037.95,3231.56,2943.51,3370.99,600.41,592.32,16.33,0000 0000 0000 0000 000000
2017-06-01 02:20:57,-0.02,0.61,0.00,23.41,26.00,29.01,13.82,44.91,1010.74,2037.73,3230.97,2942.97,3370.03,599.90,591.71,16.38,0000 0000 0000 0000 000000
2017-06-01 02:25:59,-0.00,0.61,0.00,23.45,26.03,29.04,13.81,44.84,1010.74,2037.31,3230.35,2942.51,3369.95,600.05,591.75,16.43,0000 0000 0000 0000 000000
2017-06-01 02:31:00,0.00,0.61,0.00,23.47,26.06,29.06,13.79,44.84,1010.74,2037.08,3230.00,2942.02,3369.27,600.38,592.04,16.48,0000 0000 0000 0000 000000
2017-06-01 02:36:01,0.01,0.61,0.00,23.49,26.09,29.10,13.76,45.01,1010.75,2037.03,3229.62,2941.99,3369.00,599.78,591.35,16.54,0000 0000 0000 0000 000000
2017-06-01 02:41:02,0.02,0.61,0.00,23.53,26.11,29.12,13.80,44.85,1010.73,2037.00,3229.03,2941.65,3368.69,600.15,591.64,16.59,0000 0000 0000 0000 000000
2017-06-01 02:46:03,0.02,0.61,0.00,23.56,26.14,29.16,13.73,44.83,1010.72,2037.00,3228.70,2941.01,3368.02,600.14,591.46,16.64,0000 0000 0000 0000 000000
2017-06-01 02:51:05,0.04,0.61,0.00,23.59,26.17,29.19,13.78,44.78,1010.69,2037.00,3228.02,2940.36,3367.25,599.93,591.40,16.69,0000 0000 0000 0000 000000
2017-06-01 02:56:06,0.02,0.62,0.00,23.58,26.20,29.22,13.75,44.80,1010.72,2036.95,3227.50,2940.01,3366.99,599.61,591.07,16.74,0000 0000 0000 0000 000000
2017-06-01 03:01:07,0.02,0.62,0.00,23.59,26.23,29.24,13.85,44.81,1010.55,2036.95,3226.99,2939.81,3366.40,600.11,591.28,16.79,0000 0000 0000 0000 000000
2017-06-01 03:06:08,0.01,0.62,0.00,23.65,26.26,29.28,13.73,44.67,1010.48,2036.67,3226.27,2939.09,3365.99,600.06,591.20,16.84,0000 0000 0000 0000 000000
2017-06-01 03:11:09,-0.03,0.62,0.00,23.70,26.28,29.31,13.72,44.81,1010.56,2036.23,3225.91,2938.99,3365.39,599.88,590.84,16.89,0000 0000 0000 0000 000000
2017-06-01 03:16:10,0.03,0.62,0.00,23.79,26.31,29.33,13.75,44.80,1010.66,2036.10,3225.23,2938.54,3365.00,599.77,590.79,16.94,0000 0000 0000 0000 000000
2017-06-01 03:21:12,0.02,0.62,0.00,23.85,26.36,29.34,13.74,44.83,1010.57,2036.00,3224.72,2937.99,3364.31,599.88,590.64,16.99,0000 0000 0000 0000 000000
2017-06-01 03:26:13,0.03,0.62,0.00,23.92,26.40,29.38,13.77,44.93,1010.70,2036.00,3224.03,2937.42,3363.96,600.15,590.88,17.04,0000 0000 0000 0000 000000
2017-06-01 03:31:15,0.03,0.62,0.00,24.02,26.46,29.42,13.68,44.77,1010.70,2036.00,3223.69,2937.00,3363.19,599.77,590.18,17.09,0000 0000 0000 0000 000000
2017-06-01 03:36:16,0.02,0.62,0.00,24.10,26.52,29.47,13.75,44.88,1010.74,2035.85,3223.02,2936.40,3362.73,599.62,590.12,17.14,0000 0000 0000 0000 000000
2017-06-01 03:41:17,-0.03,0.62,0.00,24.13,26.58,29.52,13.79,44.86,1010.72,2035.18,3222.42,2935.98,3362.01,600.00,590.32,17.19,0000 0000 0000 0000 000000
2017-06-01 03:46:18,0.03,0.62,0.00,24.12,26.64,29.57,13.71,44.98,1010.75,2035.01,3221.92,2935.31,3361.28,599.87,590.32,17.24,0000 0000 0000 0000 000000
2017-06-01 03:51:19,0.03,0.62,0.00,24.10,26.71,29.63,13.72,44.88,1010.75,2034.99,3221.09,2934.84,3360.72,600.03,590.48,17.29,0000 0000 0000 0000 000000
2017-06-01 03:56:21,-0.01,0.63,0.00,24.10,26.78,29.68,13.79,45.14,1010.76,2034.59,3220.31,2934.05,3359.83,599.94,590.22,17.34,0000 0000 0000 0000 000000
2017-06-01 04:01:22,0.01,0.62,0.00,24.36,26.86,29.73,13.69,45.01,1010.76,2034.04,3219.63,2933.27,3358.99,599.66,589.62,17.39,0000 0000 0000 0000 000000
2017-06-01 04:06:24,0.04,0.63,0.00,24.60,26.94,29.80,13.73,44.92,1010.76,2034.00,3218.86,2932.67,3358.11,600.25,589.52,17.44,0000 0000 0000 0000 000000
2017-06-01 04:11:25,-0.02,0.63,0.00,24.79,27.03,29.87,13.68,44.83,1010.76,2033.61,3218.01,2931.91,3357.20,600.06,589.07,17.49,0000 0000 0000 0000 000000
2017-06-01 04:16:26,0.03,0.63,0.00,24.97,27.12,29.98,13.68,44.97,1010.76,2033.03,3217.08,2931.00,3356.29,599.99,588.80,17.54,0000 0000 0000 0000 000000
2017-06-01 04:21:28,0.05,0.63,0.00,25.12,27.21,30.10,13.64,44.99,1010.76,2032.94,3216.05,2930.09,3355.14,599.76,588.16,17.59,0000 0000 0000 0000 000000
2017-06-01 04:26:29,-0.01,0.63,0.00,25.25,27.31,30.22,13.68,45.00,1010.77,2032.22,3215.09,2929.23,3354.14,599.91,588.15,17.64,0000 0000 0000 0000 000000
2017-06-01 04:31:30,0.05,0.63,0.00,25.34,27.40,30.34,13.61,45.01,1010.77,2032.01,3214.15,2928.44,3353.17,599.94,587.87,17.69,0000 0000 0000 0000 000000
2017-06-01 04:36:32,0.02,0.63,0.00,25.40,27.49,30.49,13.67,45.02,1010.79,2031.85,3213.17,2927.69,3352.22,600.01,587.94,17.74,0000 0000 0000 0000 000000
2017-06-01 04:41:33,0.00,0.63,0.00,25.50,27.59,30.59,13.63,44.95,1010.80,2031.07,3212.01,2926.61,3351.00,599.72,587.40,17.79,0000 0000 0000 0000 000000
2017-06-01 04:46:34,0.03,0.63,0.00,25.60,27.69,30.68,13.66,45.10,1010.87,2030.82,3210.80,2925.66,3349.81,600.01,587.55,17.84,0000 0000 0000 0000 000000
2017-06-01 04:51:35,0.00,0.63,0.00,25.65,27.79,30.79,13.67,44.92,1011.17,2030.07,3209.61,2924.68,3348.69,599.94,587.61,17.89,0000 0000 0000 0000 000000
2017-06-01 04:56:37,0.04,0.64,0.00,25.69,27.89,30.89,13.63,44.89,1011.22,2029.92,3208.58,2923.79,3347.66,600.01,587.54,17.94,0000 0000 0000 0000 000000
2017-06-01 05:01:38,-0.01,0.64,0.00,25.73,27.98,30.97,13.66,44.80,1011.24,2029.17,3207.43,2922.79,3346.53,600.00,587.44,17.99,0000 0000 0000 0000 000000
2017-06-01 05:06:39,0.07,0.64,0.00,25.74,28.08,31.03,13.63,44.95,1011.24,2029.00,3205.98,2921.68,3345.21,599.83,587.22,18.04,0000 0000 0000 0000 000000
2017-06-01 05:11:41,0.01,0.64,0.00,25.76,28.16,31.10,13.61,44.83,1011.24,2028.57,3204.71,2920.70,3343.98,600.11,587.54,18.09,0000 0000 0000 0000 000000
2017-06-01 05:16:42,0.06,0.64,0.00,25.77,28.24,31.17,13.64,44.78,1011.24,2028.05,3203.01,2919.49,3342.61,600.38,587.65,18.14,0000 0000 0000 0000 000000
2017-06-01 05:21:43,0.08,0.65,0.00,25.71,28.32,31.22,13.65,44.77,1011.24,2027.99,3201.02,2918.06,3340.95,599.90,587.40,18.19,0000 0000 0000 0000 000000
2017-06-01 05:26:45,0.04,0.65,0.00,25.55,28.39,31.26,13.70,44.81,1011.24,2027.68,3199.16,2916.77,3339.50,600.23,587.93,18.24,0000 0000 0000 0000 000000
2017-06-01 05:31:46,0.04,0.65,0.00,25.48,28.45,31.30,13.66,44.84,1011.24,2027.05,3197.47,2915.65,3338.03,600.35,588.32,18.29,0000 0000 0000 0000 000000
2017-06-01 05:36:47,0.09,0.66,0.00,25.43,28.50,31.31,13.67,44.87,1011.24,2027.00,3195.56,2914.38,3336.57,599.89,587.90,18.34,0000 0000 0000 0000 000000
2017-06-01 05:41:48,0.15,0.66,0.00,25.39,28.55,31.33,13.68,44.78,1011.24,2026.98,3192.46,2912.35,3334.21,600.11,588.32,18.39,0000 0000 0000 0000 000000
2017-06-01 05:46:49,0.08,0.67,0.00,25.35,28.58,31.35,13.69,44.73,1011.24,2026.76,3190.10,2910.72,3332.40,600.13,588.28,18.44,0000 0000 0000 0000 000000
2017-06-01 05:51:51,0.06,0.67,0.00,25.31,28.61,31.36,13.73,44.72,1011.23,2026.22,3187.70,2909.09,3330.56,600.08,588.31,18.49,0000 0000 0000 0000 000000
2017-06-01 05:56:52,0.10,0.68,0.00,25.27,28.64,31.36,13.76,44.73,1011.19,2026.01,3185.48,2907.62,3328.79,600.14,588.47,18.54,0000 0000 0000 0000 000000
2017-06-01 06:01:53,0.07,0.68,0.00,25.25,28.65,31.36,13.76,44.81,1011.20,2026.00,3183.73,2906.46,3327.49,600.08,588.53,18.59,0000 0000 0000 0000 000000
2017-06-01 06:06:54,0.05,0.68,0.00,25.23,28.67,31.36,13.70,44.82,1011.20,2026.00,3182.53,2905.64,3326.53,599.91,588.37,18.64,0000 0000 0000 0000 000000
2017-06-01 06:11:55,0.02,0.69,0.00,25.22,28.67,31.36,13.81,44.74,1011.21,2025.99,3181.72,2905.01,3325.90,600.27,588.72,18.69,0000 0000 0000 0000 000000
2017-06-01 06:16:57,0.04,0.69,0.00,25.33,28.69,31.36,13.82,44.88,1011.22,2025.99,3181.02,2904.37,3325.11,599.81,588.11,18.74,0000 0000 0000 0000 000000
2017-06-01 06:21:58,0.02,0.69,0.00,25.40,28.70,31.35,13.68,44.92,1011.24,2025.99,3180.44,2904.00,3324.66,599.84,587.87,18.79,0000 0000 0000 0000 000000
2017-06-01 06:26:59,0.03,0.69,0.00,25.39,28.72,31.36,13.70,45.01,1011.24,2025.95,3179.85,2903.45,3324.02,600.09,588.22,18.84,0000 0000 0000 0000 000000
2017-06-01 06:32:01,0.00,0.69,0.00,25.43,28.74,31.36,13.71,44.90,1011.24,2025.73,3179.04,2902.99,3323.34,600.01,588.12,18.89,0000 0000 0000 0000 000000
2017-06-01 06:37:02,0.01,0.69,0.00,25.51,28.76,31.37,13.73,44.80,1011.24,2025.27,3178.31,2902.36,3322.73,600.15,588.04,18.94,0000 0000 0000 0000 000000
2017-06-01 06:42:04,0.05,0.69,0.00,25.57,28.78,31.38,13.69,44.74,1011.24,2025.09,3177.23,2901.57,3321.72,599.80,587.66,18.99,0000 0000 0000 0000 000000
2017-06-01 06:47:05,0.07,0.70,0.00,25.61,28.81,31.41,13.68,44.85,1011.25,2025.03,3175.57,2900.47,3320.47,600.04,587.91,19.04,0000 0000 0000 0000 000000
2017-06-01 06:52:06,0.10,0.70,0.00,25.66,28.84,31.46,13.68,44.79,1011.25,2025.00,3173.63,2899.20,3319.02,600.22,587.85,19.09,0000 0000 0000 0000 000000
2017-06-01 06:57:08,0.14,0.71,0.00,25.64,28.86,31.49,13.72,44.86,1011.25,2025.00,3170.80,2897.18,3316.73,599.97,587.62,19.14,0000 0000 0000 0000 000000
2017-06-01 07:02:09,0.11,0.71,0.00,25.54,28.89,31.51,13.72,44.84,1011.26,2024.99,3168.30,2895.43,3314.75,600.26,588.11,19.19,0000 0000 0000 0000 000000
2017-06-01 07:07:10,0.11,0.72,0.00,25.47,28.90,31.55,13.71,44.88,1011.26,2024.98,3166.26,2894.14,3313.21,600.03,588.06,19.24,0000 0000 0000 0000 000000
2017-06-01 07:12:11,0.14,0.73,0.00,25.43,28.92,31.59,13.74,44.76,1011.26,2024.96,3163.12,2892.01,3310.79,599.88,588.01,19.29,0000 0000 0000 0000 000000
2017-06-01 07:17:13,0.13,0.73,0.00,25.41,28.93,31.61,13.57,44.58,1011.25,2024.93,3160.09,2889.99,3308.41,599.90,588.03,19.34,0000 0000 0000 0000 000000
2017-06-01 07:22:14,0.14,0.74,0.00,25.36,28.95,31.62,13.63,44.71,1011.25,2024.81,3157.24,2888.09,3306.22,599.49,587.56,19.39,0000 0000 0000 0000 000000
2017-06-01 07:27:15,0.19,0.75,0.00,25.34,28.95,31.61,13.68,44.78,1011.26,2024.68,3153.04,2885.25,3302.98,599.87,588.12,19.44,0000 0000 0000 0000 000000
2017-06-01 07:32:16,0.13,0.76,0.00,25.31,28.95,31.60,13.73,44.77,1011.25,2024.36,3149.33,2882.64,3300.03,600.18,588.47,19.49,0000 0000 0000 0000 000000
2017-06-01 07:37:18,0.13,0.76,0.00,25.28,28.95,31.59,13.72,44.83,1011.26,2024.27,3146.65,2880.80,3297.93,600.08,588.29,19.54,0000 0000 0000 0000 000000
2017-06-01 07:42:19,0.10,0.77,0.00,25.25,28.95,31.58,13.69,44.80,1011.26,2024.30,3144.42,2879.25,3296.06,600.02,588.36,19.59,0000 0000 0000 0000 000000
2017-06-01 07:47:20,0.13,0.78,0.00,25.24,28.93,31.57,13.67,44.61,1011.25,2024.36,3141.96,2877.70,3294.13,599.89,588.32,19.64,0000 0000 0000 0000 000000
2017-06-01 07:52:22,0.15,0.78,0.00,25.23,28.92,31.54,13.74,44.81,1011.25,2024.30,3138.71,2875.59,3291.68,600.30,588.63,19.69,0000 0000 0000 0000 000000
2017-06-01 07:57:23,0.11,0.79,0.00,25.22,28.92,31.54,13.63,44.66,1011.26,2024.48,3136.35,2873.96,3289.76,599.84,588.40,19.75,0000 0000 0000 0000 000000
2017-06-01 08:02:24,0.05,0.79,0.00,25.21,28.91,31.52,13.73,44.57,1011.28,2024.47,3135.20,2873.07,3289.01,600.42,589.02,19.80,0000 0000 0000 0000 000000
2017-06-01 08:07:25,0.04,0.80,0.00,25.20,28.90,31.51,13.79,44.58,1011.27,2024.73,3134.97,2872.98,3288.45,600.08,588.61,19.85,0000 0000 0000 0000 000000
2017-06-01 08:12:27,0.03,0.80,0.00,25.18,28.90,31.49,13.69,44.63,1011.28,2024.87,3134.35,2872.78,3288.03,599.67,588.28,19.90,0000 0000 0000 0000 000000
2017-06-01 08:17:28,0.03,0.80,0.00,25.26,28.87,31.50,13.75,44.60,1011.28,2024.94,3133.89,2872.08,3287.74,600.28,588.66,19.95,0000 0000 0000 0000 000000
2017-06-01 08:22:30,0.02,0.80,0.00,25.32,28.87,31.51,13.66,44.73,1011.28,2024.93,3133.10,2871.83,3286.99,599.95,588.21,20.00,0000 0000 0000 0000 000000
2017-06-01 08:27:31,0.10,0.80,0.00,25.30,28.87,31.47,13.65,44.85,1011.28,2024.95,3131.86,2870.62,3285.77,600.01,588.34,20.05,0000 0000 0000 0000 000000
2017-06-01 08:32:32,0.14,0.81,0.00,25.34,28.88,31.47,13.75,44.86,1011.33,2024.95,3129.17,2868.69,3283.63,600.32,588.63,20.10,0000 0000 0000 0000 000000
2017-06-01 08:37:34,0.08,0.82,0.00,25.40,28.90,31.47,13.66,44.86,1011.42,2024.94,3127.33,2867.29,3281.93,599.58,587.99,20.15,0000 0000 0000 0000 000000
2017-06-01 08:42:35,0.13,0.82,0.00,25.47,28.90,31.49,13.70,44.76,1011.51,2024.91,3124.91,2865.56,3279.94,600.14,588.27,20.20,0000 0000 0000 0000 000000
2017-06-01 08:47:36,0.06,0.83,0.00,25.50,28.91,31.50,13.67,44.64,1011.51,2024.79,3122.97,2864.15,3278.39,600.04,588.02,20.25,0000 0000 0000 0000 000000
2017-06-01 08:52:37,0.10,0.83,0.00,25.54,28.92,31.53,13.70,44.70,1011.61,2024.64,3120.86,2862.69,3276.76,599.84,587.98,20.30,0000 0000 0000 0000 000000
2017-06-01 08:57:38,0.08,0.84,0.00,25.57,28.95,31.55,13.74,44.71,1011.68,2024.33,3118.39,2861.02,3274.78,600.44,588.55,20.35,0000 0000 0000 0000 000000
2017-06-01 09:02:39,0.09,0.84,0.00,25.51,28.96,31.57,13.69,44.73,1011.71,2024.08,3116.22,2859.51,3273.15,600.10,588.25,20.40,0000 0000 0000 0000 000000
2017-06-01 09:07:41,0.07,0.85,0.00,25.39,28.98,31.60,13.67,44.79,1011.73,2024.04,3114.49,2858.35,3272.01,600.29,588.76,20.45,0000 0000 0000 0000 000000
2017-06-01 09:12:42,0.01,0.85,0.00,25.33,29.00,31.64,13.76,44.77,1011.73,2024.01,3113.99,2858.00,3271.33,599.84,588.36,20.50,0000 0000 0000 0000 000000
2017-06-01 09:17:43,0.01,0.85,0.00,25.30,29.00,31.66,13.68,44.77,1011.73,2024.01,3113.39,2857.97,3271.01,600.04,588.57,20.55,0000 0000 0000 0000 000000
2017-06-01 09:22:44,0.03,0.85,0.00,25.25,29.00,31.68,13.80,44.65,1011.74,2024.00,3112.96,2857.33,3270.71,600.27,588.89,20.60,0000 0000 0000 0000 000000
2017-06-01 09:27:45,0.02,0.85,0.00,25.19,29.00,31.68,13.70,44.62,1011.73,2024.01,3112.21,2857.00,3270.07,600.11,588.81,20.65,0000 0000 0000 0000 000000
2017-06-01 09:32:47,0.00,0.85,0.00,25.15,29.00,31.67,13.75,44.56,1011.74,2024.00,3111.99,2856.98,3269.99,600.16,589.10,20.70,0000 0000 0000 0000 000000
2017-06-01 09:37:48,0.01,0.85,0.00,25.12,28.98,31.64,13.71,44.77,1011.74,2024.00,3111.51,2856.92,3269.95,599.80,588.68,20.75,0000 0000 0000 0000 000000
2017-06-01 09:42:49,0.02,0.85,0.00,25.10,28.97,31.63,13.71,44.63,1011.74,2024.00,3111.02,2856.58,3269.52,599.74,588.85,20.80,0000 0000 0000 0000 000000
2017-06-01 09:47:50,0.01,0.85,0.00,25.06,28.95,31.60,13.75,44.62,1011.75,2024.03,3110.99,2856.27,3269.19,600.01,589.17,20.85,0000 0000 0000 0000 000000
2017-06-01 09:52:52,0.01,0.86,0.00,25.03,28.94,31.60,13.70,44.68,1011.75,2024.09,3110.74,2856.04,3269.01,599.78,588.90,20.90,0000 0000 0000 0000 000000
2017-06-01 09:57:53,0.03,0.86,0.00,25.04,28.92,31.57,13.72,44.73,1011.76,2024.26,3110.28,2856.03,3269.00,600.23,589.30,20.95,0000 0000 0000 0000 000000
2017-06-01 10:02:54,0.00,0.86,0.00,25.11,28.91,31.66,13.77,44.67,1011.77,2024.33,3110.00,2856.00,3268.99,600.10,589.11,21.00,0000 0000 0000 0000 000000
2017-06-01 10:07:55,0.02,0.86,0.00,25.11,28.90,31.65,13.77,44.74,1011.79,2024.31,3109.83,2855.95,3268.47,600.22,589.28,21.05,0000 0000 0000 0000 000000
2017-06-01 10:12:56,0.03,0.86,0.00,25.09,28.90,31.60,13.74,44.88,1011.76,2024.35,3109.09,2855.42,3268.01,600.00,589.05,21.10,0000 0000 0000 0000 000000
2017-06-01 10:17:58,0.01,0.86,0.00,25.14,28.90,31.53,13.75,44.88,1011.76,2024.37,3108.96,2855.04,3267.97,599.91,589.01,21.15,0000 0000 0000 0000 000000
2017-06-01 10:22:59,-0.00,0.86,0.00,25.23,28.90,31.51,13.74,44.73,1011.81,2024.16,3108.18,2854.98,3267.22,600.52,589.39,21.20,0000 0000 0000 0000 000000
2017-06-01 10:28:00,0.01,0.86,0.00,25.28,28.91,31.52,13.75,44.89,1011.92,2024.08,3107.99,2854.67,3267.00,600.11,588.94,21.25,0000 0000 0000 0000 000000
2017-06-01 10:33:02,0.03,0.86,0.00,25.33,28.92,31.53,13.75,44.82,1012.07,2024.07,3107.51,2854.06,3266.80,600.07,588.81,21.30,0000 0000 0000 0000 000000
2017-06-01 10:38:03,0.01,0.86,0.00,25.36,28.93,31.55,13.77,44.80,1012.02,2024.03,3107.01,2854.00,3266.08,600.34,589.03,21.35,0000 0000 0000 0000 000000
2017-06-01 10:43:05,0.02,0.86,0.00,25.38,28.95,31.57,13.68,44.77,1011.99,2024.03,3106.74,2853.81,3265.95,600.27,588.81,21.40,0000 0000 0000 0000 000000
2017-06-01 10:48:06,0.03,0.87,0.00,25.40,28.97,31.59,13.72,44.82,1012.11,2024.00,3106.04,2853.10,3265.29,599.83,588.50,21.45,0000 0000 0000 0000 000000
2017-06-01 10:53:07,0.01,0.87,0.00,25.40,28.98,31.63,13.72,44.83,1012.20,2024.00,3105.79,2853.00,3265.00,600.04,588.63,21.50,0000 0000 0000 0000 000000
2017-06-01 10:58:08,0.02,0.87,0.00,25.41,29.00,31.64,13.66,44.89,1012.22,2024.00,3105.05,2852.92,3264.79,599.37,588.10,21.55,0000 0000 0000 0000 000000
2017-06-01 11:03:09,0.02,0.87,0.00,25.41,29.01,31.67,13.66,44.82,1012.22,2024.00,3104.98,2852.36,3264.11,599.80,588.53,21.60,0000 0000 0000 0000 000000
2017-06-01 11:08:11,0.02,0.87,0.00,25.39,29.02,31.69,13.72,45.03,1012.22,2024.00,3104.30,2852.01,3263.99,600.28,588.90,21.65,0000 0000 0000 0000 000000
2017-06-01 11:13:12,0.01,0.87,0.00,25.31,29.05,31.71,13.66,44.94,1012.22,2023.99,3103.99,2851.99,3263.69,600.12,588.86,21.70,0000 0000 0000 0000 000000
2017-06-01 11:18:14,0.03,0.87,0.00,25.16,29.05,31.74,13.76,44.88,1012.23,2023.99,3103.43,2851.59,3263.06,600.46,589.62,21.75,0000 0000 0000 0000 000000
2017-06-01 11:23:15,0.01,0.87,0.00,25.08,29.05,31.77,13.77,44.88,1012.25,2023.99,3103.01,2851.06,3263.00,600.07,589.30,21.80,0000 0000 0000 0000 000000
2017-06-01 11:28:16,0.00,0.87,0.00,25.01,29.04,31.78,13.76,44.83,1012.24,2023.99,3102.96,2851.00,3263.00,600.10,589.53,21.85,0000 0000 0000 0000 000000
2017-06-01 11:33:17,0.01,0.87,0.00,24.94,29.02,31.82,13.80,44.77,1012.24,2023.99,3102.58,2851.00,3262.94,600.05,589.66,21.90,0000 0000 0000 0000 000000
2017-06-01 11:38:19,0.02,0.88,0.00,24.89,29.01,31.83,13.78,44.79,1012.24,2023.99,3102.07,2851.00,3262.42,599.79,589.50,21.95,0000 0000 0000 0000 000000
2017-06-01 11:43:20,0.00,0.88,0.00,24.83,28.99,31.85,13.72,44.67,1012.25,2023.99,3102.00,2850.97,3262.14,599.83,589.65,22.00,0000 0000 0000 0000 000000
2017-06-01 11:48:21,0.00,0.88,0.00,24.80,28.96,31.88,13.81,44.92,1012.26,2023.99,3101.99,2850.98,3262.02,599.97,589.76,22.05,0000 0000 0000 0000 000000
2017-06-01 11:53:22,0.02,0.88,0.00,24.85,28.94,31.84,13.82,44.87,1012.28,2023.99,3101.68,2850.76,3262.00,600.20,590.02,22.10,0000 0000 0000 0000 000000
2017-06-01 11:58:24,0.02,0.88,0.00,24.87,28.91,31.76,13.78,44.90,1012.38,2023.99,3101.11,2850.25,3262.00,600.19,590.02,22.15,0000 0000 0000 0000 000000
2017-06-01 12:03:25,0.00,0.88,0.00,24.84,28.90,31.72,13.87,45.06,1012.45,2024.01,3101.02,2850.13,3261.99,600.29,590.27,22.20,0000 0000 0000 0000 000000
2017-06-01 12:08:26,0.00,0.88,0.00,24.81,28.88,31.68,13.73,45.08,1012.53,2024.01,3101.00,2850.03,3261.94,599.19,589.32,22.25,0000 0000 0000 0000 000000
2017-06-01 12:13:28,0.01,0.88,0.00,24.82,28.87,31.60,13.91,45.05,1012.66,2024.03,3100.93,2850.01,3261.45,600.21,590.39,22.30,0000 0000 0000 0000 000000
2017-06-01 12:18:29,0.01,0.88,0.00,24.90,28.87,31.58,13.75,44.98,1012.71,2024.02,3100.24,2850.00,3261.04,599.46,589.44,22.35,0000 0000 0000 0000 000000
2017-06-01 12:23:30,0.00,0.88,0.00,24.96,28.86,31.53,13.86,45.06,1012.71,2024.01,3100.00,2849.96,3261.00,599.74,589.48,22.40,0000 0000 0000 0000 000000
2017-06-01 12:28:32,0.01,0.88,0.00,25.00,28.87,31.52,13.81,44.98,1012.71,2024.01,3100.00,2849.82,3260.99,600.02,589.73,22.45,0000 0000 0000 0000 000000
2017-06-01 12:33:33,0.01,0.88,0.00,25.02,28.87,31.53,13.75,44.99,1012.71,2024.00,3099.99,2849.53,3260.95,599.47,589.21,22.50,0000 0000 0000 0000 000000
2017-06-01 12:38:34,0.01,0.88,0.00,25.04,28.87,31.57,13.74,45.04,1012.71,2024.02,3099.84,2849.21,3260.76,600.14,589.54,22.55,0000 0000 0000 0000 000000
2017-06-01 12:43:35,0.02,0.88,0.00,25.05,28.87,31.57,13.77,44.94,1012.72,2024.01,3099.16,2849.02,3260.09,599.99,589.64,22.60,0000 0000 0000 0000 000000
2017-06-01 12:48:37,0.00,0.88,0.00,25.04,28.87,31.60,13.83,44.91,1012.73,2024.00,3099.00,2849.00,3260.01,600.31,590.08,22.65,0000 0000 0000 0000 000000
2017-06-01 12:53:39,0.00,0.88,0.00,25.04,28.88,31.60,13.81,44.99,1012.85,2024.00,3098.99,2849.00,3260.00,600.24,590.00,22.70,0000 0000 0000 0000 000000